Вернуться в каталог

SL-6 R/B(2)

АктивенHEO
NORAD 21121·ROCKET BODY·🇷🇺 Russia

Запущен Feb 15, 1991 с Plesetsk Cosmodrome

Loading…

Ближайшие Пролёты (ближайшие 24 часа)

TLE

СвежийSource: Space-Track

Эпоха: Sep 13, 2026, 21:02 UTC

1 21121U 91012D   26256.87668848  .00000193  00000-0  00000-0 0  9999
2 21121  64.6414 157.6268 6502309 252.2686  30.9211  2.05802491 98953

Отслеживайте SL-6 R/B(2) в реальном времени с AllMySat

Download on the App Store